SL-16 DEB

Satellite information

Favourite Embed

Satellite Type and Status

DEBRISIN ORBIT

Key statistics

Satellite SL-16 DEB at a glance.

Uptime

12080

Days in orbit

Revolutions

≈ 13.7

Per day

Orbit

LEO

Low Earth Orbit

Inclination

71.0

Latest

Satellite identification and parameters

Extended collection of information and parameters for SL-16 DEB.

Object identification

Identified? True

Debris? True

Object name: SL-16 DEB

International designator: 1992-076D

Object number (NORAD): 22222

Object ID (CCSDS): 22222

Country: COMMONWEALTH OF INDEPENDENT STATES (CIS)

Current information (Y/N): Y

RCS size: SMALL

Orbital parameters

Period: 105.059 minutes

Inclination: 70.9972 deg

SMA: 7375.333 km

Apoapsis: 1156.756 km

Periapsis: 837.64 km

RAAN: 98.4563 deg

Eccentricy: 0.02163399

Argument of periapsis: 334.9358 deg

Mean anomaly: 24.1357 deg

Mean motion: 13.70661763 rev/day

Mean motion (dot): 0.0000017 rev/day2

B* drag term: 0.00020367513 1/REarth

Two-line elements (TLE)

Creation date: Dec. 14, 2025, 3:07 a.m.

Reference frame: TEME

Reference center: EARTH

Epoch: Dec. 13, 2025, 1:12 p.m. UTC

TLE line 0: 0 SL-16 DEB

TLE line 1: 1 22222U 92076D 25347.55015624 .00000170 00000-0 20368-3 0 9993

TLE line 2: 2 22222 70.9972 98.4563 0216340 334.9358 24.1357 13.70661763653244

Live tracking on map

Real-time ground track for satellite SL-16 DEB.

In-orbit conjunctions

A list of the most updated potential collisions computed for object SL-16 DEB.

Target Orbit TCA Probability of collision Miss distance Type
CZ-6A DEB SSO 2025-10-22 07:32:36 0.0001388249 93.0 (m) DEBRIS
CZ-6A DEB SSO 2025-10-22 05:47:22 0.0002970967 89.0 (m) DEBRIS
COSMOS 1275 DEB LEO 2025-09-09 11:52:16 0.0001152986 191.0 (m) DEBRIS
CZ-4 DEB SSO 2025-06-12 16:34:36 0.0001712781 387.0 (m) DEBRIS
DELTA 1 DEB MEO 2025-02-03 12:01:56 0.0002187972 119.0 (m) DEBRIS

Associated space launch

Second generation ELING satellite

SL-16 DEB was lifted into orbit during the mission ‘Zenit-2 | Tselina-2 11’, on board a Zenit-2 space rocket.

The launch took place on Nov. 17, 1992, 7:47 a.m. from 45/1.

For more information about the launch, click the button.

Launch to space Zenit-2 | Tselina-2 11
Zenit-2 | Tselina-2 11

Agency: N/A

Status: Launch Successful

Launch date: Nov. 17, 1992, 7:47 a.m. UTC

Rocket: Zenit-2

Launch pad: 45/1

Location: Baikonur Cosmodrome, Republic of Kazakhstan

...

Latest news about this satellite

There are no fresh news available about this satellite. Check back as we update our databases every day.


Newsletter sign-up

Weekly statistics, charts and insights to help you stay on top of the space industry.